CDT,Max TemperatureF,Mean TemperatureF,Min TemperatureF,Max Dew PointF,MeanDew PointF,Min DewpointF,Max Humidity, Mean Humidity, Min Humidity, Max Sea Level PressureIn, Mean Sea Level PressureIn, Min Sea Level PressureIn, Max VisibilityMiles, Mean VisibilityMiles, Min VisibilityMiles, Max Wind SpeedMPH, Mean Wind SpeedMPH, Max Gust SpeedMPH,PrecipitationIn, CloudCover, Events, WindDirDegrees
2012-10-1,67,56,44,49,45,42,93,70,42,29.94,29.89,29.82,10,10,10,12,5,16,0.00,0,,68
2012-10-2,73,62,51,54,49,43,80,63,36,29.89,29.85,29.80,10,10,10,18,7,25,T,5,,41
2012-10-3,61,59,57,59,57,55,100,92,82,30.06,29.97,29.89,10,5,2,13,6,18,0.05,8,Rain,173
2012-10-4,81,66,51,56,53,49,96,73,36,30.13,30.07,30.00,10,9,4,26,10,36,0.03,5,,228
2012-10-5,51,44,36,48,38,28,89,75,59,30.17,30.12,30.07,10,10,8,16,9,18,0.05,6,Rain,253
2012-10-6,50,42,34,32,28,26,75,58,44,30.17,30.13,30.07,10,10,10,14,8,20,0.00,4,,282
2012-10-7,50,41,32,31,27,23,70,56,35,30.19,30.16,30.14,10,10,10,15,6,18,0.00,6,,284
2012-10-8,58,43,28,30,26,23,82,56,29,30.22,30.15,30.07,10,10,10,18,7,28,0.00,0,,197
2012-10-9,65,53,40,43,37,31,89,58,36,30.07,29.96,29.85,10,10,5,26,13,36,0.14,2,Rain,208
2012-10-10,52,43,34,43,33,23,100,74,34,30.21,30.06,29.92,10,9,4,24,10,32,0.04,3,Rain,272
2012-10-11,65,49,32,44,32,28,82,58,29,30.23,30.17,30.10,10,10,10,25,11,35,0.00,1,,222
2012-10-12,56,46,36,43,31,23,80,56,30,30.45,30.35,30.24,10,10,10,16,7,22,0.00,2,,64
2012-10-13,68,54,39,62,47,27,100,79,48,30.29,30.04,29.88,10,6,2,18,10,26,0.31,7,Rain,178
2012-10-14,73,61,49,63,57,46,96,85,63,29.85,29.64,29.48,10,8,2,36,17,48,0.57,7,Rain,220
2012-10-15,56,47,37,47,42,36,96,79,53,30.00,29.88,29.78,10,9,5,14,7,20,0.00,5,,300
2012-10-16,67,51,34,49,42,33,96,67,43,30.00,29.81,29.62,10,10,5,20,9,26,0.00,1,,160
2012-10-17,70,62,54,57,53,47,100,79,52,29.64,29.52,29.37,10,8,2,25,13,33,0.73,5,Rain,176
2012-10-18,57,51,45,55,44,34,96,82,45,29.60,29.46,29.36,10,9,2,28,13,36,0.15,6,Rain,220
2012-10-19,52,47,42,45,43,41,100,89,71,29.65,29.52,29.47,10,9,2,13,7,17,0.10,7,Rain,208
2012-10-20,57,47,37,43,39,37,97,80,49,29.97,29.82,29.67,10,9,6,15,7,20,0.00,1,,250
2012-10-21,68,50,32,48,39,30,100,85,49,30.09,30.03,29.99,10,5,0,14,5,20,0.00,0,Fog,134
2012-10-22,69,59,48,61,54,46,93,84,61,30.04,29.98,29.91,10,10,4,14,6,17,0.28,6,Rain,149
2012-10-23,68,63,58,62,59,55,100,90,78,29.98,29.95,29.90,10,8,2,18,6,26,0.12,7,Rain,189
2012-10-24,79,69,59,63,59,56,96,76,60,29.99,29.95,29.90,10,10,5,17,9,22,0.00,1,,181
2012-10-25,79,63,46,60,55,45,93,77,54,30.01,29.87,29.75,10,9,2,28,15,40,0.44,5,Rain,221
2012-10-26,49,45,41,43,34,32,87,67,54,30.30,30.24,30.07,10,10,10,17,9,25,0.01,5,Rain,348
2012-10-27,50,44,37,36,33,31,82,68,58,30.30,30.26,30.22,10,10,10,16,6,24,0.00,5,,10
2012-10-28,50,43,36,33,29,24,82,61,44,30.28,30.24,30.22,10,10,10,17,8,24,0.00,5,,21
2012-10-29,52,43,33,35,31,26,75,61,43,30.23,30.15,29.94,10,10,10,26,14,41,0.00,3,,1
2012-10-30,46,44,41,39,36,30,89,78,56,29.91,29.75,29.71,10,7,2,32,20,49,0.20,8,Rain,341
2012-10-31,45,41,37,36,33,28,86,77,58,29.84,29.79,29.73,10,10,10,20,11,29,0.01,8,Rain,309